Gypsum, CO

6:27 AM MST on January 22, 2017 (GMT -0700)
Eagle County Regional

Weather History for KEGE - December, 2013

Change the Weather History Date:

Tuesday, December 31, 2013

  Actual Average Record
Temperature  
Mean Temperature 24 °F -  
Max Temperature 35 °F 31 °F 51 °F (1980)
Min Temperature 14 °F 0 °F -18 °F (1962)
Degree Days  
Heating Degree Days 40    
Moisture  
Dew Point 18 °F    
Average Humidity 82    
Maximum Humidity 93    
Minimum Humidity 65    
Precipitation  
Precipitation 0.00 in - - ()
Sea Level Pressure  
Sea Level Pressure 30.25 in    
Wind  
Wind Speed 2 mph (SE)    
Max Wind Speed 12 mph    
Max Gust Speed -    
Visibility 10 miles    
Events      
Averages and records for this station are not official NWS values.
T = Trace of Precipitation, MM = Missing Value Source: NWS Daily Summary

Daily Weather History Graph

Daily Weather History Graph

Search for Another Location

Airport or City:

Trip Planner

Search our weather history database for the weather conditions in past years. The results will help you decide how hot, cold, wet, or windy it might be!

Date:

Astronomy

Dec. 31, 2013 Rise Set
Actual Time 7:28 AM MST 4:53 PM MST
Civil Twilight 6:58 AM MST 5:23 PM MST
Nautical Twilight 6:24 AM MST 5:57 PM MST
Astronomical Twilight 5:51 AM MST 6:30 PM MST
Moon 6:24 AM MST (12/31) 4:32 PM MST (12/31)
Length of Visible Light 10h 25m
Length of Day
9h 25m
Waning Crescent, 1% of the Moon is Illuminated
Dec 31
Waning Crescent
Jan 1
New
Jan 7
First Quarter
Jan 15
Full
Jan 23
Last Quarter

Hourly Weather History & Observations

Time (MST) Temp. Windchill Dew Point Humidity Pressure Visibility Wind Dir Wind Speed Gust Speed Precip Events Conditions
12:15 AM 15.8 °F - 10.4 °F 79% 30.30 in 10.0 mi Calm Calm - N/A   Clear
12:35 AM 15.8 °F 8.6 °F 12.2 °F 86% 30.29 in 10.0 mi ENE 4.6 mph - N/A   Clear
12:55 AM 15.8 °F 8.6 °F 12.2 °F 86% 30.29 in 10.0 mi East 4.6 mph - N/A   Clear
1:15 AM 17.6 °F - 12.2 °F 79% 30.29 in 10.0 mi Calm Calm - N/A   Partly Cloudy
1:35 AM 14.0 °F - 10.4 °F 86% 30.29 in 10.0 mi Calm Calm - N/A   Partly Cloudy
1:55 AM 14.0 °F - 12.2 °F 93% 30.29 in 10.0 mi Calm Calm - N/A   Partly Cloudy
2:15 AM 14.0 °F - 10.4 °F 86% 30.30 in 10.0 mi Calm Calm - N/A   Partly Cloudy
2:35 AM 14.0 °F - 12.2 °F 93% 30.30 in 10.0 mi Calm Calm - N/A   Clear
2:55 AM 15.8 °F - 12.2 °F 86% 30.30 in 10.0 mi Calm Calm - N/A   Clear
3:15 AM 15.8 °F 6.1 °F 12.2 °F 86% 30.29 in 10.0 mi ESE 6.9 mph - N/A   Clear
3:35 AM 15.8 °F 7.2 °F 12.2 °F 86% 30.29 in 10.0 mi East 5.8 mph - N/A   Partly Cloudy
3:55 AM 17.6 °F - 14.0 °F 86% 30.29 in 10.0 mi Calm Calm - N/A   Scattered Clouds
4:15 AM 15.8 °F - 12.2 °F 86% 30.28 in 10.0 mi Calm Calm - N/A   Mostly Cloudy
4:35 AM 17.6 °F 12.3 °F 12.2 °F 79% 30.27 in 10.0 mi South 3.5 mph - N/A   Overcast
4:55 AM 17.6 °F - 14.0 °F 86% 30.27 in 10.0 mi Calm Calm - N/A   Overcast
5:15 AM 15.8 °F - 12.2 °F 86% 30.27 in 10.0 mi Calm Calm - N/A   Scattered Clouds
5:35 AM 15.8 °F - 12.2 °F 86% 30.27 in 10.0 mi Calm Calm - N/A   Scattered Clouds
5:55 AM 15.8 °F 10.2 °F 12.2 °F 86% 30.28 in 10.0 mi SSW 3.5 mph - N/A   Mostly Cloudy
6:15 AM 15.8 °F 10.2 °F 12.2 °F 86% 30.27 in 10.0 mi NNE 3.5 mph - N/A   Overcast
6:35 AM 15.8 °F 10.2 °F 12.2 °F 86% 30.28 in 10.0 mi South 3.5 mph - N/A   Overcast
6:50 AM 15.8 °F - 14.0 °F 93% 30.29 in 10.0 mi Calm Calm - N/A   Overcast
7:50 AM 19.4 °F - 15.8 °F 86% 30.30 in 10.0 mi Calm Calm - N/A   Mostly Cloudy
8:50 AM 21.2 °F 11.7 °F 17.6 °F 86% 30.30 in 10.0 mi South 8.1 mph - N/A   Mostly Cloudy
9:55 AM 24.8 °F 14.0 °F 19.4 °F 80% 30.31 in 10.0 mi ENE 11.5 mph - N/A   Overcast
10:50 AM 26.6 °F - 21.2 °F 80% 30.31 in 10.0 mi Calm Calm - N/A   Overcast
11:50 AM 30.2 °F - 23.0 °F 75% 30.28 in 10.0 mi Calm Calm - N/A   Mostly Cloudy
12:50 PM 33.8 °F - 23.0 °F 65% 30.25 in 10.0 mi Calm Calm - N/A   Overcast
1:50 PM 33.8 °F - 24.8 °F 70% 30.22 in 10.0 mi Calm Calm - N/A   Overcast
2:50 PM 35.6 °F - 26.6 °F 70% 30.20 in 10.0 mi Calm Calm - N/A   Overcast
3:50 PM 35.6 °F - 26.6 °F 70% 30.20 in 10.0 mi Calm Calm - N/A   Mostly Cloudy
4:50 PM 33.8 °F - 24.8 °F 70% 30.19 in 10.0 mi Calm Calm - N/A   Mostly Cloudy
5:50 PM 30.2 °F - 24.8 °F 80% 30.19 in 10.0 mi Calm Calm - N/A   Scattered Clouds
6:50 PM 28.4 °F - 24.8 °F 86% 30.19 in 10.0 mi Calm Calm - N/A   Overcast
7:50 PM 28.4 °F - 24.8 °F 86% 30.18 in 10.0 mi Calm Calm - N/A   Overcast
8:50 PM 28.4 °F 22.2 °F 24.8 °F 86% 30.16 in 10.0 mi West 5.8 mph - N/A   Mostly Cloudy
9:50 PM 33.8 °F 27.7 °F 24.8 °F 70% 30.15 in 10.0 mi West 6.9 mph - N/A   Overcast
10:50 PM 33.8 °F 29.6 °F 24.8 °F 70% 30.15 in 10.0 mi West 4.6 mph - N/A   Overcast
11:15 PM 32.0 °F 27.5 °F 24.8 °F 75% 30.14 in 10.0 mi West 4.6 mph - N/A   Overcast
11:35 PM 30.2 °F 25.4 °F 26.6 °F 86% 30.13 in 10.0 mi ENE 4.6 mph - N/A   Overcast
11:55 PM 28.4 °F 21.2 °F 24.8 °F 86% 30.12 in 10.0 mi NE 6.9 mph - N/A   Overcast